This is the latest recevied weather packets stored in our database for station/object WA7SB-7. If no packets are shown the sender has not sent any weather packets the latest 10 day(s).
| Time | Temp. | Humidity | Pressure | Rain* | Wind** | Luminosity | Snow |
|---|---|---|---|---|---|---|---|
| 1777571367 | 12.22° C | 85% | 1019.4 hPa | 0 mm | - | - | - |
| 1777571122 | 12.78° C | 86% | 1019.4 hPa | 0 mm | - | - | - |
| 1777571062 | 12.78° C | 86% | 1019.4 hPa | 0 mm | - | - | - |
| 1777570821 | 12.78° C | 86% | 1019.3 hPa | 0 mm | - | - | - |
| 1777570761 | 12.22° C | 86% | 1019.2 hPa | 0 mm | - | - | - |
| 1777570519 | 12.78° C | 87% | 1019.3 hPa | 0 mm | - | - | - |
| 1777570459 | 12.22° C | 87% | 1019.5 hPa | 0 mm | - | - | - |
| 1777570220 | 12.22° C | 87% | 1019.5 hPa | 0 mm | - | - | - |
| 1777570159 | 12.22° C | 87% | 1019.5 hPa | 0 mm | - | - | - |
| 1777569917 | 12.22° C | 88% | 1019.5 hPa | 0 mm | - | - | - |
| 1777569859 | 12.22° C | 88% | 1019.5 hPa | 0 mm | - | - | - |
| 1777569616 | 12.22° C | 88% | 1019.6 hPa | 0 mm | - | - | - |
| 1777569578 | 12.22° C | 88% | 1019.6 hPa | 0 mm | - | - | - |
| 1777569333 | 11.67° C | 89% | 1019.7 hPa | 0 mm | - | - | - |
| 1777569272 | 11.67° C | 89% | 1019.6 hPa | 0 mm | - | - | - |
| 1777569031 | 11.67° C | 89% | 1019.7 hPa | 0 mm | - | - | - |
| 1777568973 | 11.67° C | 89% | 1019.7 hPa | 0 mm | - | - | - |
| 1777568734 | 11.67° C | 89% | 1019.6 hPa | 0 mm | - | - | - |
| 1777568654 | 11.67° C | 89% | 1019.6 hPa | 0 mm | - | - | - |
| 1777568422 | 11.67° C | 89% | 1019.7 hPa | 0 mm | - | - | - |
| 1777568363 | 11.11° C | 89% | 1019.7 hPa | 0 mm | - | - | - |
| 1777568114 | 11.11° C | 89% | 1019.7 hPa | 0 mm | - | - | - |
| 1777568078 | 11.11° C | 89% | 1019.6 hPa | 0 mm | - | - | - |
| 1777567832 | 11.67° C | 89% | 1019.6 hPa | 0 mm | - | - | - |
| 1777567770 | 11.67° C | 89% | 1019.7 hPa | 0 mm | - | - | - |
* Rain latest hour (hover to see other rain measurements)
** Current wind speed in m/s (hover to see current wind gust speed)